Theta_e
309 306 305 303 303 302 302 301 301 301 300 300 302 305 306 307 307 305 303 306 306 306 307 311 311 312 316 321 316 325 321 320 319 318 318 330 338 337 339 342 344 344 344 346 352 356 357
318 311 308 305 303 303 302 301 301 300 300 301 305 307 307 307 307 307 304 305 306 307 307 311 312 311 315 320 323 323 322 319 318 316 318 326 338 339 339 342 341 340 339 339 354 357 356
319 315 311 306 304 303 302 301 300 299 300 304 307 307 307 308 307 307 306 306 307 308 308 310 314 318 320 318 322 325 328 323 318 316 320 321 332 336 338 335 335 335 331 332 355 357 358
317 316 311 307 305 303 302 300 300 300 303 306 307 307 308 308 308 307 306 306 308 308 308 310 317 321 323 328 324 323 330 329 321 319 317 324 330 332 337 333 329 330 327 330 352 355 356
316 315 311 307 305 303 301 300 300 302 306 307 307 307 308 308 307 306 306 306 309 311 309 312 320 322 327 321 314 315 323 331 328 324 320 320 323 323 326 329 326 325 330 328 331 354 356
316 315 311 307 304 301 300 300 302 305 307 307 308 308 308 307 306 306 306 308 313 313 316 321 322 322 321 324 317 318 318 330 325 322 319 319 319 326 325 324 329 330 329 326 327 345 356
317 314 311 305 303 301 301 303 305 307 307 307 308 308 307 306 306 306 306 308 310 314 319 320 322 321 321 318 317 316 317 321 322 320 321 325 327 329 328 325 325 326 327 328 328 328 357
315 311 306 305 303 303 305 306 307 307 307 307 308 307 306 307 307 306 307 310 313 313 311 314 319 320 321 316 316 316 318 321 326 326 324 326 327 326 326 326 327 328 327 327 326 333 347
308 306 305 304 304 306 308 308 307 307 308 307 307 306 307 308 306 311 308 313 316 315 310 312 313 318 313 314 315 320 317 318 329 329 327 328 328 328 329 329 330 328 327 328 326 345 358
306 305 305 306 308 309 310 310 307 307 307 306 306 307 307 306 310 305 312 315 315 313 308 313 314 314 313 313 314 320 320 320 324 330 331 325 326 327 329 330 329 326 323 325 325 322 344
305 305 306 309 310 310 309 307 307 307 307 306 307 307 308 308 304 308 314 315 315 311 316 316 312 314 312 311 313 315 316 317 319 321 322 324 325 326 326 325 326 327 324 323 324 323 321
306 307 308 309 308 308 307 307 307 307 307 307 309 309 309 312 310 315 314 315 313 310 317 314 313 313 312 313 314 315 316 315 315 317 317 318 320 322 324 325 324 323 323 320 319 319 322
306 307 308 308 309 309 309 308 308 307 307 309 311 311 310 305 311 312 314 311 312 313 314 313 312 311 311 311 313 314 315 314 313 313 314 315 316 316 319 321 321 322 317 320 322 321 323
306 307 308 309 309 309 309 308 308 308 308 311 312 312 313 312 312 313 314 313 317 315 314 312 312 311 311 312 313 314 313 311 314 314 311 313 316 315 316 318 323 323 317 319 324 323 324
306 307 308 309 310 309 309 308 308 308 309 311 314 314 315 316 316 315 310 314 313 313 315 314 312 312 313 313 312 313 312 313 316 313 313 314 316 316 315 314 316 317 322 318 319 319 320
306 307 309 309 310 310 309 308 308 309 311 312 315 315 316 318 316 313 310 316 315 315 315 313 314 314 314 315 314 311 313 313 316 314 311 314 315 313 315 314 313 312 316 319 316 322 324
307 308 310 309 310 310 309 309 308 310 312 314 317 315 317 317 316 310 315 318 316 315 315 315 314 314 314 315 314 313 314 314 314 313 310 310 309 312 312 311 313 312 311 312 314 317 321
306 308 310 309 309 309 309 309 309 311 313 313 313 314 316 317 316 313 313 314 314 313 313 313 314 314 314 313 314 314 313 314 313 313 313 310 308 311 313 312 313 313 311 308 313 317 318
306 308 310 309 309 309 309 309 311 312 312 310 312 314 316 316 314 313 314 314 314 314 314 313 313 313 312 312 314 314 314 314 313 312 312 310 308 310 311 310 309 311 311 310 307 310 316
306 309 309 309 309 309 308 311 313 314 314 311 312 312 310 308 309 313 314 314 314 315 313 314 313 311 311 311 310 313 313 314 314 315 318 310 305 308 310 311 310 310 311 311 308 309 311
308 309 309 309 309 309 308 312 314 315 316 315 311 313 311 311 311 310 312 313 315 314 312 311 312 313 310 311 310 311 311 310 312 315 312 307 309 310 309 311 311 311 312 313 313 312 311
308 310 310 309 309 309 309 312 314 315 316 316 312 312 309 309 309 311 310 311 314 313 312 312 312 312 310 311 312 312 310 309 310 308 310 309 313 313 314 314 314 315 314 315 314 314 314
308 310 310 309 309 308 309 312 313 315 316 315 315 315 307 308 309 309 310 312 313 312 312 311 312 311 311 311 310 309 307 307 308 309 307 312 313 313 315 313 314 314 313 314 315 318 321
308 310 310 309 309 308 309 312 314 315 316 316 317 315 309 311 310 311 312 313 313 312 312 311 310 311 310 308 308 308 308 308 308 308 303 309 311 311 312 312 315 310 310 312 319 320 320
308 310 310 309 309 308 308 310 314 315 316 316 316 317 312 311 312 314 312 313 312 312 313 312 312 309 307 307 308 310 309 313 313 312 311 306 306 311 313 313 312 313 311 315 316 319 317
308 310 311 310 309 308 308 311 313 314 315 316 317 316 315 310 312 314 313 312 311 311 312 313 311 310 307 307 310 313 316 314 315 312 308 308 308 310 314 315 316 312 315 315 313 317 316
308 310 311 310 309 308 308 308 311 313 316 317 317 316 317 311 311 311 312 311 311 310 310 312 312 310 306 307 311 315 314 311 310 311 310 309 309 310 313 314 316 314 313 314 317 314 312
308 309 311 310 309 309 308 308 309 313 312 315 318 317 316 313 312 315 313 313 311 309 310 310 311 308 306 304 303 302 306 309 308 309 311 314 316 315 316 315 315 311 313 316 313 309 309
308 309 311 310 310 309 309 308 308 308 308 310 316 317 317 315 313 317 317 314 314 312 309 309 309 308 306 303 305 298 308 308 305 303 308 312 309 309 311 316 312 308 308 308 307 306 307
Wind_Speed
20 21 21 21 21 22 23 24 25 26 26 27 27 28 29 27 28 27 27 23 17 17 16 10 7 4 2 1 8 6 10 18 19 17 15 6 7 5 5 5 11 12 13 9 8 16 14
22 20 21 20 21 22 23 24 25 26 27 28 28 29 30 30 28 28 27 23 18 17 14 8 6 1 2 3 3 12 14 19 17 21 14 11 7 9 6 8 8 5 9 16 14 14 12
24 22 21 21 21 23 24 25 25 26 27 27 28 29 30 30 30 29 28 23 18 15 11 7 1 3 3 10 4 14 14 15 20 24 7 23 11 3 5 7 9 9 5 8 16 15 9
24 22 21 21 22 22 23 24 26 27 28 28 29 29 31 31 31 30 29 22 17 15 5 4 3 2 7 6 9 11 17 11 17 17 20 14 12 7 4 8 8 6 2 0 8 12 9
23 21 20 20 21 22 24 25 26 27 28 29 30 30 31 32 31 31 30 21 20 6 2 1 2 3 8 8 6 17 15 12 16 14 16 7 3 6 4 3 5 6 4 5 3 18 10
23 21 20 20 21 23 24 25 27 28 29 30 31 32 32 33 30 30 28 23 5 3 5 1 5 3 7 4 6 8 10 19 5 5 0 3 2 2 3 4 4 4 3 6 5 7 8
22 21 20 21 23 24 25 26 27 29 30 31 31 32 33 33 30 26 27 6 4 2 4 7 5 4 3 3 7 4 6 9 4 5 4 4 3 5 9 6 6 3 5 11 15 7 6
20 20 21 23 23 25 27 28 28 30 31 31 31 32 33 32 28 20 9 1 5 3 6 10 14 11 21 9 1 4 7 4 5 5 3 3 6 9 7 6 8 7 8 15 13 7 8
19 20 22 24 26 27 28 29 29 31 31 30 32 33 34 31 21 3 9 10 12 18 1 8 6 5 6 3 3 6 9 5 4 6 6 6 10 7 7 7 8 9 8 15 11 6 11
20 22 24 25 27 27 29 29 30 32 33 32 31 34 33 30 3 15 9 20 21 2 4 6 5 4 4 5 3 8 5 3 2 8 6 6 14 10 10 12 6 7 8 11 5 5 2
22 23 24 25 28 28 28 30 32 33 32 30 32 34 28 10 11 5 15 27 23 4 1 3 3 3 4 6 6 4 4 3 1 2 4 7 5 7 7 13 7 11 13 6 2 2 5
26 27 26 26 27 28 30 31 32 34 33 32 35 29 21 5 10 10 23 25 6 5 2 4 4 4 5 2 2 4 2 3 0 2 1 7 4 4 8 9 8 9 2 6 4 3 3
27 27 27 27 27 28 29 31 33 35 35 36 30 19 12 7 5 15 21 5 4 2 6 4 4 5 5 5 4 4 3 2 3 3 2 5 5 4 1 3 6 4 7 3 4 4 5
27 27 27 28 28 29 30 32 33 36 36 33 22 12 8 11 8 15 11 5 6 7 5 6 4 5 5 5 2 3 3 3 5 1 2 1 4 8 9 5 2 1 8 5 5 2 3
29 29 29 28 29 30 30 31 33 35 36 23 18 6 8 6 7 7 4 5 1 5 6 8 5 4 8 5 6 4 8 8 4 5 5 3 4 5 9 5 1 5 1 6 5 1 4
30 29 28 28 29 28 30 31 33 35 38 19 11 7 7 7 2 1 5 5 3 5 7 7 7 6 7 8 7 4 6 7 4 8 3 3 3 3 6 7 11 7 4 3 3 3 3
30 29 28 28 28 29 29 30 32 33 37 17 5 4 7 5 6 5 2 2 8 14 12 8 7 6 5 4 6 5 5 3 5 5 9 3 4 8 4 6 3 7 6 6 2 5 5
31 29 26 27 27 28 28 28 28 33 38 13 4 4 27 2 4 1 3 4 7 10 12 8 8 8 5 6 6 6 7 6 5 3 4 6 3 3 4 6 2 4 5 6 4 7 1
31 29 26 25 26 26 26 25 26 32 31 7 2 2 18 15 4 5 5 12 14 10 11 7 11 8 6 6 5 6 6 7 12 6 3 5 4 4 12 6 8 6 7 5 5 2 2
31 29 25 24 25 24 24 22 26 29 22 3 2 4 4 5 1 4 5 7 5 12 14 10 8 8 8 9 8 5 8 11 8 6 12 6 4 4 4 3 4 6 13 10 4 2 5
28 28 24 22 23 22 22 22 28 26 18 4 3 1 2 4 6 7 13 5 13 7 6 13 8 12 5 7 5 6 9 8 6 13 6 4 2 4 2 6 8 9 12 11 7 4 4
27 27 23 21 21 19 20 22 27 29 13 7 3 3 5 2 5 12 7 6 7 6 7 5 5 7 10 5 3 3 6 5 3 8 6 5 2 4 7 7 10 13 10 11 11 5 5
24 25 22 20 18 16 16 19 25 29 17 8 7 6 4 6 4 5 4 4 5 3 7 6 6 4 7 5 4 4 5 5 6 0 3 1 4 3 1 5 7 9 2 3 7 9 1
22 22 20 18 16 13 13 15 20 23 22 9 7 1 4 2 3 3 4 4 3 1 1 1 6 4 4 5 5 3 2 4 5 8 5 4 3 3 3 4 3 5 7 5 8 10 7
19 19 18 15 13 11 11 12 15 18 15 20 16 5 3 2 2 3 5 3 1 1 2 4 3 2 4 6 5 6 5 4 5 3 6 2 5 2 4 5 6 10 7 3 4 4 8
17 17 15 13 10 9 9 9 11 14 17 10 22 14 4 4 3 3 5 3 2 2 4 3 2 6 6 3 3 3 3 3 4 8 5 6 4 4 2 3 5 1 12 15 3 3 8
15 14 13 11 8 7 6 6 8 11 13 11 11 21 3 3 4 4 2 3 2 2 2 2 1 5 5 3 3 3 2 1 2 3 4 5 3 3 4 4 5 6 12 10 3 2 6
13 12 11 10 7 5 4 3 4 7 12 11 6 13 9 1 5 2 4 4 1 2 3 4 4 5 3 4 3 1 2 1 1 3 3 1 2 2 2 3 5 9 3 2 5 3 4
11 10 10 9 7 5 3 2 2 6 9 10 3 11 13 2 5 10 9 7 10 9 5 3 6 3 4 4 2 2 2 3 4 2 2 3 4 3 5 3 3 1 4 5 4 5 4
Wind_Direction
359 357 355 354 353 352 351 349 349 349 348 348 348 345 343 344 342 339 339 339 334 331 325 327 321 302 128 198 250 198 159 181 185 182 187 178 191 194 223 222 248 253 265 239 211 159 151
354 352 351 349 350 351 350 349 348 348 347 346 345 343 341 340 339 336 335 335 331 331 322 317 326 216 178 257 223 184 165 176 189 185 191 180 205 213 269 246 243 277 289 278 151 152 148
351 352 349 350 351 350 350 348 347 346 345 345 344 341 339 337 336 334 331 330 327 328 317 312 355 136 259 237 169 181 175 186 189 187 163 207 223 266 350 308 252 254 287 305 140 157 154
350 352 351 349 349 349 348 348 346 345 344 343 343 340 337 336 334 330 328 326 322 318 299 312 145 191 246 249 244 246 200 185 188 194 207 207 222 277 206 268 330 346 56 358 148 156 161
352 347 348 349 349 348 347 347 346 344 342 342 341 337 334 333 333 329 324 325 314 300 188 266 156 189 268 323 223 223 191 179 180 197 221 239 252 222 291 270 4 10 275 292 149 179 158
349 346 349 350 349 348 346 346 345 343 341 341 339 336 333 332 331 331 324 328 321 123 133 169 265 305 274 222 196 179 201 179 164 148 201 161 169 263 19 79 227 259 344 325 271 178 147
348 347 354 353 350 347 345 345 343 341 340 339 338 336 333 331 329 331 328 339 26 50 212 195 194 263 284 184 154 193 197 149 130 100 159 204 104 216 235 186 214 253 283 277 284 257 141
353 357 356 351 348 346 344 342 340 338 337 338 338 337 335 330 327 326 321 286 236 237 304 232 244 244 262 273 232 241 212 125 141 180 176 346 221 220 217 214 241 263 265 276 283 292 174
5 360 355 351 348 344 341 339 339 340 340 338 339 338 336 329 327 33 315 267 303 309 359 290 210 192 230 133 229 203 142 170 164 170 178 180 241 223 233 245 241 249 231 263 256 83 54
3 359 354 349 344 342 340 336 345 343 341 340 339 340 339 332 34 332 299 335 347 66 50 274 186 243 161 140 320 150 153 133 177 195 206 205 245 230 224 248 209 264 225 252 283 47 191
1 356 352 348 346 341 339 340 345 343 342 340 339 341 339 340 314 307 329 345 339 64 32 192 134 153 159 131 148 349 76 64 205 246 97 252 226 223 222 236 202 241 254 241 122 84 99
360 355 354 350 349 349 347 344 344 344 343 340 338 344 337 331 313 336 341 336 348 54 232 141 141 147 97 168 24 146 95 80 242 267 195 227 240 200 221 254 230 230 240 22 69 95 49
358 356 355 353 349 350 349 347 347 346 344 340 339 346 323 287 266 329 336 357 57 141 336 128 171 140 143 198 147 160 158 151 147 86 328 336 301 284 281 11 343 116 62 3 342 25 206
358 355 355 354 351 352 351 350 349 347 346 339 343 344 323 281 293 310 337 48 51 356 354 324 115 113 171 148 163 106 91 34 61 228 114 121 350 3 2 352 7 38 147 157 188 189 275
357 355 353 352 349 354 353 353 352 348 349 341 352 341 307 318 304 298 49 44 37 345 323 328 19 46 8 13 129 117 88 7 44 6 113 81 261 327 37 337 67 288 127 185 127 76 62
356 353 351 351 347 352 355 355 355 351 355 352 349 335 286 3 165 63 65 0 57 18 7 35 60 27 50 0 43 35 66 322 43 15 84 347 343 21 318 15 25 81 288 29 23 137 183
354 353 351 350 349 350 356 358 358 355 359 0 360 26 332 357 179 48 71 74 39 14 33 43 14 43 47 47 44 36 17 340 35 17 50 56 78 300 28 49 336 351 9 353 93 133 154
352 354 351 351 352 354 357 1 4 360 357 19 7 40 4 303 37 55 56 18 40 18 17 15 47 60 45 17 50 60 52 46 25 30 45 334 98 337 249 271 296 147 69 60 49 312 95
351 353 351 354 354 358 360 7 6 4 359 358 47 274 23 49 58 4 345 75 60 39 14 15 17 24 30 27 73 57 79 40 56 53 42 326 25 11 336 8 24 33 11 12 273 354 252
353 353 352 357 357 3 6 12 7 7 355 34 51 28 338 35 66 105 91 28 58 32 43 53 39 40 31 24 9 55 32 15 30 73 62 63 69 131 197 187 263 325 330 346 92 355 328
353 354 356 357 3 11 14 16 14 11 3 42 40 319 210 347 0 57 63 51 50 20 32 17 26 26 24 29 27 28 5 358 16 27 27 82 75 18 339 336 332 326 320 331 336 295 284
352 356 356 0 9 17 19 21 18 19 16 45 82 56 10 27 19 52 40 4 47 6 33 35 59 25 51 73 100 323 21 32 335 350 27 4 336 51 4 354 336 315 306 315 314 314 5
352 357 358 2 12 24 26 25 23 23 38 46 10 7 95 324 23 66 6 48 43 34 21 85 75 54 45 360 304 244 211 196 230 128 337 119 129 81 259 22 347 301 277 2 336 39 106
352 357 359 3 13 29 27 34 28 30 34 43 18 12 75 350 73 98 69 90 85 66 110 85 77 78 292 317 326 339 275 235 259 279 166 155 135 127 177 66 255 249 309 314 85 66 36
349 357 359 4 11 31 31 31 30 33 38 43 29 45 83 68 130 85 122 120 350 38 325 97 42 223 4 24 32 11 6 34 22 23 27 143 137 148 155 185 283 306 285 225 140 88 38
345 354 360 3 10 24 35 38 32 26 31 45 32 23 89 115 303 296 124 66 118 4 344 82 25 33 55 65 60 67 50 354 349 342 22 42 75 119 117 154 239 268 331 329 168 153 355
342 351 358 2 9 14 30 28 26 20 21 29 27 15 72 100 285 96 131 158 147 109 165 328 56 16 54 50 65 55 91 233 27 334 331 332 357 157 200 223 260 339 321 319 205 262 356
342 347 353 358 4 2 19 12 22 20 19 21 22 23 23 50 280 56 167 134 98 108 143 252 44 4 43 61 93 219 90 143 208 275 285 280 311 339 275 231 252 1 345 337 346 290 300
340 342 348 352 358 351 346 342 359 348 0 4 358 18 5 161 237 300 286 205 186 181 140 14 170 158 168 93 129 95 156 171 175 253 300 202 177 196 197 246 158 308 279 333 337 268 298